| time (UTC) | temp C | wind direction | speed KPH | gust KPH | rain 1hr cm | rain 24hr cm | rain mn cm | humidity % | barometer mb |
| 20260502212045 | 21 | 148 | 3.2 | 14.5 | 0.00 | 0.00 | 0.00 | 64 | 1015.0 |
| 20260502211556 | 21 | 205 | 6.4 | 16.1 | 0.00 | 0.00 | 0.00 | 65 | 1015.1 |
| 20260502211049 | 21 | 302 | 3.2 | 16.1 | 0.00 | 0.00 | 0.00 | 62 | 1015.2 |
| 20260502210545 | 21 | 251 | 3.2 | 16.1 | 0.00 | 0.00 | 0.00 | 62 | 1015.2 |
| 20260502210051 | 21 | 308 | 6.4 | 16.1 | 0.00 | 0.00 | 0.00 | 65 | 1015.2 |
| 20260502205545 | 21 | 264 | 4.8 | 16.1 | 0.00 | 0.00 | 0.00 | 65 | 1015.2 |
| 20260502205047 | 21 | 270 | 1.6 | 16.1 | 0.00 | 0.00 | 0.00 | 64 | 1015.3 |
| 20260502204555 | 21 | 312 | 4.8 | 16.1 | 0.00 | 0.00 | 0.00 | 66 | 1015.3 |
| 20260502204045 | 21 | 235 | 6.4 | 16.1 | 0.00 | 0.00 | 0.00 | 67 | 1015.3 |
| 20260502203544 | 21 | 225 | 4.8 | 14.5 | 0.00 | 0.00 | 0.00 | 66 | 1015.3 |
| 20260502203108 | 20 | 210 | 3.2 | 14.5 | 0.00 | 0.00 | 0.00 | 68 | 1015.3 |
| 20260502202545 | 21 | 344 | 3.2 | 11.3 | 0.00 | 0.00 | 0.00 | 68 | 1015.4 |
| 20260502202046 | 20 | 247 | 4.8 | 14.5 | 0.00 | 0.00 | 0.00 | 70 | 1015.5 |
| 20260502201553 | 20 | 310 | 4.8 | 16.1 | 0.00 | 0.00 | 0.00 | 70 | 1015.5 |
| 20260502201047 | 20 | 221 | 4.8 | 16.1 | 0.00 | 0.00 | 0.00 | 69 | 1015.6 |
| 20260502200547 | 20 | 311 | 3.2 | 12.9 | 0.00 | 0.00 | 0.00 | 69 | 1015.7 |
| 20260502200051 | 20 | 325 | 3.2 | 12.9 | 0.00 | 0.00 | 0.00 | 69 | 1015.7 |
| 20260502195548 | 20 | 269 | 1.6 | 12.9 | 0.00 | 0.00 | 0.00 | 69 | 1015.8 |
| 20260502195047 | 20 | 286 | 1.6 | 12.9 | 0.00 | 0.00 | 0.00 | 70 | 1015.9 |
| 20260502194551 | 18 | 258 | 4.8 | 12.9 | 0.00 | 0.00 | 0.00 | 72 | 1015.9 |
| 20260502194047 | 19 | 298 | 3.2 | 17.7 | 0.00 | 0.00 | 0.00 | 72 | 1015.9 |
| 20260502193548 | 18 | 213 | 6.4 | 17.7 | 0.00 | 0.00 | 0.00 | 74 | 1016.0 |
| 20260502193051 | 18 | 283 | 4.8 | 16.1 | 0.00 | 0.00 | 0.00 | 73 | 1016.0 |
| 20260502192546 | 18 | 316 | 3.2 | 16.1 | 0.00 | 0.00 | 0.00 | 72 | 1016.1 |
| 20260502192048 | 18 | 310 | 6.4 | 16.1 | 0.00 | 0.00 | 0.00 | 73 | 1016.1 |
| 20260502191551 | 18 | 0 | 3.2 | 14.5 | 0.00 | 0.00 | 0.00 | 74 | 1016.1 |
| 20260502191048 | 18 | 306 | 6.4 | 14.5 | 0.00 | 0.00 | 0.00 | 74 | 1016.2 |
| 20260502190545 | 18 | 281 | 4.8 | 11.3 | 0.00 | 0.00 | 0.00 | 74 | 1016.2 |
| 20260502190053 | 18 | 15 | 3.2 | 12.9 | 0.00 | 0.00 | 0.00 | 72 | 1016.3 |
| 20260502185548 | 18 | 0 | 1.6 | 12.9 | 0.00 | 0.00 | 0.00 | 73 | 1016.3 |
| 20260502185048 | 18 | 282 | 3.2 | 9.7 | 0.00 | 0.00 | 0.00 | 70 | 1016.3 |
| 20260502184552 | 18 | 322 | 1.6 | 9.7 | 0.00 | 0.00 | 0.00 | 71 | 1016.4 |
| 20260502184051 | 18 | 260 | 3.2 | 9.7 | 0.00 | 0.00 | 0.00 | 71 | 1016.5 |
| 20260502183547 | 18 | 16 | 3.2 | 8.0 | 0.00 | 0.00 | 0.00 | 73 | 1016.4 |
| 20260502183058 | 17 | 203 | 1.6 | 11.3 | 0.00 | 0.00 | 0.00 | 74 | 1016.5 |
| 20260502182549 | 17 | 252 | 1.6 | 11.3 | 0.00 | 0.00 | 0.00 | 76 | 1016.4 |
| 20260502182047 | 17 | 315 | 1.6 | 11.3 | 0.00 | 0.00 | 0.00 | 75 | 1016.5 |
| 20260502181551 | 17 | 296 | 0.0 | 11.3 | 0.00 | 0.00 | 0.00 | 76 | 1016.4 |
| 20260502181047 | 17 | 234 | 1.6 | 9.7 | 0.00 | 0.00 | 0.00 | 76 | 1016.6 |
| 20260502180550 | 16 | 234 | 3.2 | 9.7 | 0.00 | 0.00 | 0.00 | 76 | 1016.5 |
| 20260502164047 | 13 | 317 | 1.6 | 8.0 | 0.00 | 0.00 | 0.00 | 87 | 1016.8 |
| 20260502163547 | 13 | 309 | 1.6 | 11.3 | 0.00 | 0.00 | 0.00 | 86 | 1016.8 |
| 20260502163104 | 13 | 210 | 1.6 | 11.3 | 0.00 | 0.00 | 0.00 | 87 | 1017.0 |
| 20260502162551 | 13 | 241 | 3.2 | 8.0 | 0.00 | 0.00 | 0.00 | 87 | 1017.0 |
| 20260502162050 | 12 | 0 | 0.0 | 4.8 | 0.00 | 0.00 | 0.00 | 88 | 1016.9 |
| 20260502161558 | 12 | 0 | 0.0 | 4.8 | 0.00 | 0.00 | 0.00 | 90 | 1016.9 |
| 20260502161048 | 12 | 0 | 0.0 | 4.8 | 0.00 | 0.00 | 0.00 | 90 | 1016.8 |
| 20260502160548 | 12 | 0 | 1.6 | 6.4 | 0.00 | 0.00 | 0.00 | 90 | 1016.8 |
| 20260502160104 | 11 | 0 | 1.6 | 6.4 | 0.00 | 0.00 | 0.00 | 90 | 1016.8 |
| 20260502152047 | 11 | 0 | 1.6 | 8.0 | 0.00 | 0.00 | 0.00 | 91 | 1016.7 |
| 20260502151556 | 11 | 196 | 1.6 | 8.0 | 0.00 | 0.00 | 0.00 | 91 | 1016.7 |
| 20260502151050 | 11 | 0 | 1.6 | 8.0 | 0.00 | 0.00 | 0.00 | 92 | 1016.8 |
| 20260502150548 | 10 | 220 | 0.0 | 8.0 | 0.00 | 0.00 | 0.00 | 92 | 1016.7 |
| 20260502130549 | 8 | 0 | 0.0 | 0.0 | 0.00 | 0.00 | 0.00 | 93 | 1017.2 |
| 20260502123547 | 8 | 0 | 0.0 | 6.4 | 0.00 | 0.00 | 0.00 | 93 | 1017.3 |
| 20260502123053 | 8 | 167 | 3.2 | 6.4 | 0.00 | 0.00 | 0.00 | 93 | 1017.2 |
| 20260502122548 | 8 | 167 | 0.0 | 6.4 | 0.00 | 0.00 | 0.00 | 93 | 1017.2 |
| 20260502122047 | 8 | 0 | 0.0 | 6.4 | 0.00 | 0.00 | 0.00 | 93 | 1017.2 |
| 20260502121554 | 8 | 167 | 1.6 | 6.4 | 0.00 | 0.00 | 0.00 | 93 | 1017.1 |
| 20260502121051 | 8 | 167 | 0.0 | 1.6 | 0.00 | 0.00 | 0.00 | 93 | 1016.8 |
| 20260502120547 | 8 | 0 | 0.0 | 1.6 | 0.00 | 0.00 | 0.00 | 93 | 1016.9 |
| 20260502120110 | 8 | 0 | 0.0 | 1.6 | 0.00 | 0.00 | 0.00 | 93 | 1016.7 |
| 20260502115547 | 8 | 0 | 0.0 | 6.4 | 0.00 | 0.00 | 0.00 | 93 | 1016.7 |
| 20260502115045 | 8 | 0 | 0.0 | 6.4 | 0.00 | 0.00 | 0.00 | 93 | 1016.6 |
| 20260502114601 | 8 | 167 | 1.6 | 6.4 | 0.00 | 0.00 | 0.00 | 93 | 1016.5 |
| 20260502114048 | 8 | 0 | 0.0 | 0.0 | 0.00 | 0.00 | 0.00 | 93 | 1016.4 |
| 20260502113547 | 8 | 0 | 0.0 | 0.0 | 0.00 | 0.00 | 0.00 | 92 | 1016.3 |
| 20260502113053 | 8 | 0 | 0.0 | 0.0 | 0.00 | 0.00 | 0.00 | 92 | 1016.3 |
| 20260502112548 | 8 | 0 | 0.0 | 0.0 | 0.00 | 0.00 | 0.00 | 92 | 1016.3 |
| 20260502112047 | 8 | 0 | 0.0 | 0.0 | 0.00 | 0.00 | 0.00 | 92 | 1016.4 |
| 20260502111601 | 8 | 0 | 0.0 | 0.0 | 0.00 | 0.00 | 0.00 | 92 | 1016.4 |
| 20260502111049 | 8 | 0 | 0.0 | 0.0 | 0.00 | 0.00 | 0.00 | 92 | 1016.4 |
| 20260502110547 | 9 | 0 | 0.0 | 0.0 | 0.00 | 0.00 | 0.00 | 92 | 1016.5 |
| 20260502110057 | 8 | 0 | 0.0 | 1.6 | 0.00 | 0.00 | 0.00 | 92 | 1016.4 |
| 20260502105548 | 8 | 0 | 0.0 | 1.6 | 0.00 | 0.00 | 0.00 | 92 | 1016.3 |
| 20260502105047 | 8 | 167 | 0.0 | 1.6 | 0.00 | 0.00 | 0.00 | 91 | 1016.5 |
| 20260502104555 | 8 | 0 | 0.0 | 0.0 | 0.00 | 0.00 | 0.00 | 91 | 1016.6 |
| 20260502104046 | 8 | 0 | 0.0 | 0.0 | 0.00 | 0.00 | 0.00 | 91 | 1016.7 |
| 20260502103545 | 9 | 0 | 0.0 | 0.0 | 0.00 | 0.00 | 0.00 | 91 | 1016.7 |
| 20260502103051 | 9 | 0 | 0.0 | 0.0 | 0.00 | 0.00 | 0.00 | 91 | 1016.6 |
| 20260502102546 | 9 | 0 | 0.0 | 0.0 | 0.00 | 0.00 | 0.00 | 90 | 1016.6 |
| 20260502102046 | 9 | 0 | 0.0 | 0.0 | 0.00 | 0.00 | 0.00 | 90 | 1016.6 |
| 20260502101554 | 9 | 0 | 0.0 | 0.0 | 0.00 | 0.00 | 0.00 | 90 | 1016.6 |
| 20260502101045 | 9 | 0 | 0.0 | 0.0 | 0.00 | 0.00 | 0.00 | 90 | 1016.5 |
| 20260502100547 | 9 | 0 | 0.0 | 0.0 | 0.00 | 0.00 | 0.00 | 90 | 1016.5 |
| 20260502100110 | 9 | 0 | 0.0 | 0.0 | 0.00 | 0.00 | 0.00 | 90 | 1016.5 |
| 20260502091045 | 10 | 0 | 0.0 | 4.8 | 0.00 | 0.00 | 0.00 | 89 | 1016.4 |
| 20260502090546 | 10 | 0 | 0.0 | 4.8 | 0.00 | 0.00 | 0.00 | 89 | 1016.4 |
| 20260502071048 | 11 | 0 | 0.0 | 1.6 | 0.00 | 0.00 | 0.00 | 85 | 1016.2 |
| 20260502070547 | 11 | 0 | 0.0 | 1.6 | 0.00 | 0.00 | 0.00 | 85 | 1016.1 |
| 20260502070048 | 11 | 0 | 0.0 | 1.6 | 0.00 | 0.00 | 0.00 | 85 | 1016.1 |
| 20260502065548 | 11 | 0 | 0.0 | 0.0 | 0.00 | 0.00 | 0.00 | 84 | 1016.1 |
| 20260502065047 | 11 | 0 | 0.0 | 0.0 | 0.00 | 0.00 | 0.00 | 84 | 1016.2 |
| 20260502064600 | 11 | 0 | 0.0 | 3.2 | 0.00 | 0.00 | 0.00 | 84 | 1016.1 |
| 20260502064048 | 11 | 0 | 0.0 | 3.2 | 0.00 | 0.00 | 0.00 | 83 | 1016.1 |
| 20260502063551 | 11 | 0 | 0.0 | 1.6 | 0.00 | 0.00 | 0.00 | 83 | 1016.2 |
| 20260502063052 | 11 | 0 | 0.0 | 3.2 | 0.00 | 0.00 | 0.00 | 83 | 1016.1 |
| 20260502062548 | 11 | 0 | 0.0 | 3.2 | 0.00 | 0.00 | 0.00 | 83 | 1016.1 |
| 20260502062051 | 11 | 0 | 0.0 | 3.2 | 0.00 | 0.00 | 0.00 | 83 | 1016.2 |
| 20260502061558 | 11 | 0 | 0.0 | 3.2 | 0.00 | 0.00 | 0.00 | 83 | 1016.1 |
| 20260502061045 | 11 | 212 | 0.0 | 3.2 | 0.00 | 0.00 | 0.00 | 83 | 1016.1 |
| 20260502060547 | 11 | 0 | 0.0 | 1.6 | 0.00 | 0.00 | 0.00 | 82 | 1016.0 |
| 20260502060059 | 11 | 0 | 0.0 | 1.6 | 0.00 | 0.00 | 0.00 | 82 | 1016.0 |
| 20260502055550 | 11 | 0 | 0.0 | 3.2 | 0.00 | 0.00 | 0.00 | 82 | 1016.1 |
| 20260502055048 | 11 | 0 | 0.0 | 3.2 | 0.00 | 0.00 | 0.00 | 82 | 1015.9 |
| 20260502054552 | 12 | 0 | 0.0 | 3.2 | 0.00 | 0.00 | 0.00 | 82 | 1015.9 |
| 20260502054049 | 12 | 0 | 0.0 | 4.8 | 0.00 | 0.00 | 0.00 | 82 | 1015.8 |
| 20260502053548 | 12 | 0 | 0.0 | 4.8 | 0.00 | 0.00 | 0.00 | 81 | 1015.9 |
| 20260502053052 | 12 | 212 | 0.0 | 3.2 | 0.00 | 0.00 | 0.00 | 80 | 1015.9 |
| 20260502052551 | 12 | 0 | 0.0 | 1.6 | 0.00 | 0.00 | 0.00 | 80 | 1015.8 |
| 20260502052048 | 12 | 0 | 0.0 | 1.6 | 0.00 | 0.00 | 0.00 | 79 | 1015.9 |
| 20260502051634 | 12 | 0 | 0.0 | 1.6 | 0.00 | 0.00 | 0.00 | 79 | 1015.8 |
| 20260502051047 | 12 | 0 | 0.0 | 3.2 | 0.00 | 0.00 | 0.00 | 79 | 1015.8 |
| 20260502050547 | 12 | 0 | 0.0 | 3.2 | 0.00 | 0.00 | 0.00 | 78 | 1015.9 |
| 20260502050054 | 12 | 0 | 0.0 | 0.0 | 0.00 | 0.00 | 0.00 | 78 | 1015.7 |
| 20260502045548 | 12 | 0 | 0.0 | 4.8 | 0.00 | 0.00 | 0.00 | 78 | 1015.5 |
| 20260502045048 | 12 | 0 | 0.0 | 4.8 | 0.00 | 0.00 | 0.00 | 77 | 1015.6 |
| 20260502044602 | 12 | 0 | 0.0 | 4.8 | 0.00 | 0.00 | 0.00 | 76 | 1015.6 |
| 20260502044048 | 12 | 0 | 0.0 | 4.8 | 0.00 | 0.00 | 0.00 | 76 | 1015.6 |
| 20260502043548 | 12 | 200 | 0.0 | 4.8 | 0.00 | 0.00 | 0.00 | 76 | 1015.7 |
| 20260502043053 | 12 | 0 | 1.6 | 4.8 | 0.00 | 0.00 | 0.00 | 77 | 1015.6 |
| 20260502042551 | 12 | 200 | 1.6 | 4.8 | 0.00 | 0.00 | 0.00 | 78 | 1015.6 |
| 20260502042048 | 12 | 0 | 0.0 | 0.0 | 0.00 | 0.00 | 0.00 | 77 | 1015.6 |
| 20260502041550 | 13 | 0 | 0.0 | 1.6 | 0.00 | 0.00 | 0.00 | 77 | 1015.4 |
| 20260502041052 | 13 | 0 | 0.0 | 3.2 | 0.00 | 0.00 | 0.00 | 76 | 1015.6 |
| 20260502040548 | 13 | 0 | 0.0 | 4.8 | 0.00 | 0.00 | 0.00 | 76 | 1015.4 |
| 20260502040052 | 13 | 200 | 1.6 | 4.8 | 0.00 | 0.00 | 0.00 | 74 | 1015.6 |
| 20260502035547 | 13 | 0 | 0.0 | 8.0 | 0.00 | 0.00 | 0.00 | 75 | 1015.7 |
| 20260502035048 | 13 | 0 | 1.6 | 8.0 | 0.00 | 0.00 | 0.00 | 72 | 1015.6 |
| 20260502034552 | 13 | 168 | 1.6 | 12.9 | 0.00 | 0.00 | 0.00 | 73 | 1015.7 |
| 20260502034048 | 13 | 0 | 1.6 | 12.9 | 0.00 | 0.00 | 0.00 | 71 | 1015.6 |
| 20260502033549 | 13 | 304 | 3.2 | 14.5 | 0.00 | 0.00 | 0.00 | 70 | 1015.3 |
| 20260502033056 | 14 | 314 | 3.2 | 14.5 | 0.00 | 0.00 | 0.00 | 68 | 1015.0 |
| 20260502032547 | 14 | 330 | 4.8 | 11.3 | 0.00 | 0.00 | 0.00 | 69 | 1015.1 |
| 20260502032047 | 14 | 329 | 3.2 | 20.9 | 0.00 | 0.00 | 0.00 | 68 | 1015.2 |
| 20260502031607 | 14 | 190 | 0.0 | 20.9 | 0.00 | 0.00 | 0.00 | 68 | 1015.5 |
| 20260502031047 | 15 | 250 | 4.8 | 14.5 | 0.00 | 0.00 | 0.00 | 68 | 1015.5 |
| 20260502030552 | 15 | 223 | 3.2 | 9.7 | 0.00 | 0.00 | 0.00 | 68 | 1015.2 |
| 20260502030052 | 15 | 215 | 1.6 | 8.0 | 0.00 | 0.00 | 0.00 | 68 | 1015.1 |
| 20260502025548 | 15 | 0 | 1.6 | 6.4 | 0.00 | 0.00 | 0.00 | 68 | 1014.9 |
| 20260502025048 | 15 | 256 | 0.0 | 6.4 | 0.00 | 0.00 | 0.00 | 68 | 1014.9 |
| 20260502024555 | 15 | 316 | 0.0 | 8.0 | 0.00 | 0.00 | 0.00 | 68 | 1014.8 |
| 20260502024049 | 15 | 0 | 1.6 | 8.0 | 0.00 | 0.00 | 0.00 | 67 | 1014.7 |
| 20260502023548 | 15 | 250 | 3.2 | 11.3 | 0.00 | 0.00 | 0.00 | 67 | 1014.6 |
| 20260502023052 | 16 | 314 | 0.0 | 11.3 | 0.00 | 0.00 | 0.00 | 67 | 1014.6 |
| 20260502022550 | 16 | 295 | 3.2 | 9.7 | 0.00 | 0.00 | 0.00 | 68 | 1014.5 |
| 20260502022047 | 16 | 0 | 1.6 | 9.7 | 0.00 | 0.00 | 0.00 | 69 | 1014.5 |
| 20260502021552 | 16 | 270 | 3.2 | 16.1 | 0.00 | 0.00 | 0.00 | 69 | 1014.4 |
| 20260502021047 | 16 | 315 | 4.8 | 16.1 | 0.00 | 0.00 | 0.00 | 69 | 1014.4 |
| 20260502020550 | 16 | 328 | 4.8 | 14.5 | 0.00 | 0.00 | 0.00 | 69 | 1014.4 |
| 20260502020105 | 16 | 304 | 3.2 | 11.3 | 0.00 | 0.00 | 0.00 | 69 | 1014.5 |
| 20260502015547 | 16 | 0 | 3.2 | 12.9 | 0.00 | 0.00 | 0.00 | 69 | 1014.4 |
| 20260502015050 | 16 | 0 | 3.2 | 12.9 | 0.00 | 0.00 | 0.00 | 70 | 1014.4 |
| 20260502014550 | 16 | 308 | 4.8 | 14.5 | 0.00 | 0.00 | 0.00 | 70 | 1014.4 |
| 20260502014047 | 16 | 0 | 4.8 | 14.5 | 0.00 | 0.00 | 0.00 | 69 | 1014.4 |
| 20260502013548 | 17 | 327 | 3.2 | 16.1 | 0.00 | 0.00 | 0.00 | 70 | 1014.4 |
| 20260502013056 | 17 | 319 | 6.4 | 16.1 | 0.00 | 0.00 | 0.00 | 69 | 1014.3 |
| 20260502012547 | 17 | 42 | 3.2 | 16.1 | 0.00 | 0.00 | 0.00 | 69 | 1014.3 |
| 20260502012045 | 17 | 33 | 6.4 | 16.1 | 0.00 | 0.00 | 0.00 | 68 | 1014.3 |
| 20260502011551 | 17 | 327 | 6.4 | 19.3 | 0.00 | 0.00 | 0.00 | 68 | 1014.3 |
| 20260502011044 | 18 | 319 | 4.8 | 19.3 | 0.00 | 0.00 | 0.00 | 67 | 1014.3 |
| 20260502010549 | 18 | 319 | 6.4 | 19.3 | 0.00 | 0.00 | 0.00 | 67 | 1014.3 |
| 20260502010054 | 18 | 286 | 3.2 | 16.1 | 0.00 | 0.00 | 0.00 | 66 | 1014.3 |
| 20260502005546 | 18 | 347 | 6.4 | 19.3 | 0.00 | 0.00 | 0.00 | 65 | 1014.2 |
| 20260502005047 | 18 | 314 | 4.8 | 19.3 | 0.00 | 0.00 | 0.00 | 65 | 1014.3 |
| 20260502004549 | 19 | 342 | 4.8 | 17.7 | 0.00 | 0.00 | 0.00 | 65 | 1014.2 |
| 20260502004045 | 18 | 331 | 6.4 | 17.7 | 0.00 | 0.00 | 0.00 | 65 | 1014.3 |
| 20260502003549 | 19 | 299 | 4.8 | 14.5 | 0.00 | 0.00 | 0.00 | 65 | 1014.2 |
| 20260502003047 | 19 | 222 | 4.8 | 16.1 | 0.00 | 0.00 | 0.00 | 64 | 1014.3 |
| 20260502002545 | 19 | 41 | 4.8 | 16.1 | 0.00 | 0.00 | 0.00 | 65 | 1014.2 |
| 20260502002045 | 19 | 308 | 8.0 | 16.1 | 0.00 | 0.00 | 0.00 | 65 | 1014.1 |
| 20260502001552 | 20 | 314 | 6.4 | 16.1 | 0.00 | 0.00 | 0.00 | 64 | 1014.2 |
| 20260502001046 | 20 | 200 | 3.2 | 17.7 | 0.00 | 0.00 | 0.00 | 63 | 1014.2 |
| 20260502000543 | 20 | 325 | 3.2 | 17.7 | 0.00 | 0.00 | 0.00 | 64 | 1014.1 |
| 20260502000051 | 20 | 36 | 4.8 | 16.1 | 0.00 | 0.00 | 0.00 | 64 | 1014.0 |
| 20260501235546 | 20 | 253 | 6.4 | 16.1 | 0.00 | 0.00 | 0.00 | 63 | 1014.0 |
| 20260501235046 | 20 | 316 | 3.2 | 12.9 | 0.00 | 0.00 | 0.00 | 63 | 1014.0 |
| 20260501234559 | 20 | 307 | 1.6 | 16.1 | 0.00 | 0.00 | 0.00 | 64 | 1014.1 |
| 20260501234046 | 20 | 225 | 6.4 | 16.1 | 0.00 | 0.00 | 0.00 | 63 | 1014.0 |
| 20260501233546 | 20 | 220 | 4.8 | 16.1 | 0.00 | 0.00 | 0.00 | 62 | 1014.1 |
| 20260501233104 | 21 | 310 | 4.8 | 16.1 | 0.00 | 0.00 | 0.00 | 61 | 1014.0 |
| 20260501232546 | 21 | 330 | 4.8 | 17.7 | 0.00 | 0.00 | 0.00 | 61 | 1014.1 |
| 20260501232049 | 21 | 284 | 6.4 | 17.7 | 0.00 | 0.00 | 0.00 | 63 | 1014.3 |
| 20260501231608 | 21 | 274 | 3.2 | 16.1 | 0.00 | 0.00 | 0.00 | 62 | 1014.3 |
| 20260501231046 | 21 | 329 | 3.2 | 16.1 | 0.00 | 0.00 | 0.00 | 62 | 1014.4 |
| 20260501230545 | 20 | 33 | 4.8 | 16.1 | 0.00 | 0.00 | 0.00 | 64 | 1014.4 |
| 20260501230120 | 20 | 286 | 3.2 | 16.1 | 0.00 | 0.00 | 0.00 | 64 | 1014.5 |
| 20260501225547 | 20 | 267 | 6.4 | 16.1 | 0.00 | 0.00 | 0.00 | 64 | 1014.5 |
| 20260501225046 | 21 | 10 | 3.2 | 14.5 | 0.00 | 0.00 | 0.00 | 63 | 1014.6 |
| 20260501224557 | 21 | 238 | 4.8 | 16.1 | 0.00 | 0.00 | 0.00 | 63 | 1014.6 |
| 20260501224044 | 21 | 271 | 4.8 | 16.1 | 0.00 | 0.00 | 0.00 | 62 | 1014.7 |
| 20260501223547 | 21 | 296 | 3.2 | 16.1 | 0.00 | 0.00 | 0.00 | 64 | 1014.6 |
| 20260501223100 | 21 | 302 | 4.8 | 14.5 | 0.00 | 0.00 | 0.00 | 63 | 1014.6 |
| 20260501222547 | 21 | 304 | 3.2 | 14.5 | 0.00 | 0.00 | 0.00 | 63 | 1014.7 |
| 20260501222051 | 21 | 0 | 4.8 | 16.1 | 0.00 | 0.00 | 0.00 | 61 | 1014.7 |
| 20260501221550 | 21 | 304 | 1.6 | 16.1 | 0.00 | 0.00 | 0.00 | 62 | 1014.8 |
| 20260501221047 | 21 | 302 | 3.2 | 14.5 | 0.00 | 0.00 | 0.00 | 62 | 1014.8 |
| 20260501220549 | 21 | 323 | 3.2 | 14.5 | 0.00 | 0.00 | 0.00 | 64 | 1014.7 |
| 20260501220055 | 21 | 280 | 3.2 | 11.3 | 0.00 | 0.00 | 0.00 | 62 | 1014.9 |
| 20260501215547 | 21 | 0 | 1.6 | 11.3 | 0.00 | 0.00 | 0.00 | 62 | 1014.9 |
| 20260501215048 | 21 | 360 | 1.6 | 14.5 | 0.00 | 0.00 | 0.00 | 62 | 1015.1 |
| 20260501214600 | 21 | 302 | 3.2 | 14.5 | 0.00 | 0.00 | 0.00 | 61 | 1015.1 |
| 20260501214048 | 21 | 295 | 4.8 | 12.9 | 0.00 | 0.00 | 0.00 | 59 | 1015.2 |
| 20260501213548 | 21 | 329 | 1.6 | 11.3 | 0.00 | 0.00 | 0.00 | 56 | 1015.2 |
| 20260501213059 | 21 | 230 | 3.2 | 14.5 | 0.00 | 0.00 | 0.00 | 57 | 1015.2 |
| 20260501212549 | 20 | 329 | 4.8 | 14.5 | 0.00 | 0.00 | 0.00 | 58 | 1015.4 |